Flag for Dominican Republic Weather past 2 weeks in Puerto Plata, Dominican Republic

Now
91 °F

Passing clouds.


Feels Like: 108 °F
Forecast: N/A
Wind: 9 mph from North

Location: Puerto Plata International

Current Time: Apr 27, 2015 at 5:03:22 PM

Latest Report: Apr 27, 2015 at 4:00 PM


Visibility: N/A

Pressure: 29.80 "Hg

Humidity: 67%

Dew point: 79 °F

Location of Puerto PlataLocation

Historic Weather in Puerto Plata — Graph

°F

Puerto Plata temperature yesterday

Maximum temperature yesterday: 88 °F (at 4:00 PM)
Minimum temperature yesterday: 73 °F (at 5:00 AM)
Average temperature yesterday: 82 °F

Past Weeks' High & Low Weather Summary

 TemperatureHumidityPressure
High93 °F (Apr 27, 12:00 PM)100% (Apr 19, 5:00 AM)30.12 "Hg (Apr 19, 5:00 AM)
Low68 °F (Apr 17, 7:00 AM)55% (Apr 19, 12:00 PM)29.80 "Hg (Apr 27, 2:00 PM)
Average81 °F76%29.97 "Hg
* Reported Apr 12 4:00 PM — Apr 27 4:00 PM, Puerto Plata, Weather by CustomWeather, © 2015

Note: Actual official high and low records may vary slightly from our data, if they occured in-between our weather recording intervals... More about our weather records

Advertising

Puerto Plata weather history for previous 24 hours

 ConditionsComfort  
Time TempWeatherWind HumidityBarometerVisibility
4:00 PM
Mon, Apr 27
91 °FPassing clouds.9 mph67%29.80 "HgN/A
3:00 PM91 °FPassing clouds.9 mph63%29.80 "HgN/A
2:00 PM91 °FPassing clouds.12 mph63%29.80 "HgN/A
1:00 PM91 °FPassing clouds.12 mph63%29.83 "HgN/A
12:00 PM93 °FSunny.5 mph56%29.83 "HgN/A
11:00 AM88 °FSunny.5 mph66%29.86 "HgN/A
10:00 AM86 °FSunny.6 mph66%29.86 "HgN/A
9:00 AM84 °FWarm.No wind66%29.86 "HgN/A
8:00 AM77 °FSunny.No wind83%29.86 "HgN/A
7:00 AM75 °FPassing clouds.No wind94%29.89 "HgN/A
2:00 AM77 °FPassing clouds.No wind94%29.89 "HgN/A
11:00 PM
Sun, Apr 26
77 °FPassing clouds.No wind94%29.92 "HgN/A
8:00 PM81 °FPassing clouds.No wind89%29.89 "HgN/A
7:00 PM82 °FScattered clouds.No wind79%29.86 "HgN/A
6:00 PM84 °FScattered clouds.7 mph70%29.86 "HgN/A
5:00 PM84 °FScattered clouds.7 mph70%29.86 "HgN/A
Weather by CustomWeather, © 2015

See weather overviewHow to use our weather pages